Regional Weather Roundup
Issued by NWS Goodland, KS

Home | Current Version | Previous Version | Graphics & Text | Print | Product List | Glossary On
Versions: 1 2 3 4 5 6 7 8 9 10 11 12 13 14 15 16 17 18 19 20 21 22 23 24 25 26 27 28 29 30 31 32 33 34 35 36 37 38 39 40 41 42 43 44 45 46 47 48 49 50
000
ASUS43 KGLD 192108
RWRGLD

GOODLAND FORECAST AREA HOURLY WEATHER ROUNDUP
NATIONAL WEATHER SERVICE GOODLAND KS
300 PM MDT THU OCT 19 2017

...OFFICIAL OBSERVATIONS...

CITY           SKY/WX    TMP DP  RH WIND       PRES   REMARKS
GOODLAND KS    SUNNY     79  44  28 S18G29    29.94F
HILL CITY KS   SUNNY     83  46  27 S17G25    29.95F
IMPERIAL NEB   SUNNY     84  36  18 S21       29.91F
MCCOOK NEB     SUNNY     83  46  27 S18G29    29.92F
AKRON CO       LGT RAIN  78  26  14 S14G23    29.94F
BURLINGTON CO  SUNNY     80  40  23 S18G26    29.97F
LIMON CO       MOSUNNY   73  24  16 S17G23    30.00F
$$

...UNOFFICIAL OBSERVATIONS...

CITY           SKY/WX    TMP DP  RH WIND       PRES   REMARKS
COLBY KS       SUNNY     81  48  32 S17G24    29.96F
LENORA KS        N/A     84  32  15 S13G20      N/A
NORTON KS      SUNNY     82  34  17 S16       29.93F
SHARON SPRINGS   N/A     80  47  30 S17G26      N/A
TRENTON NEB      N/A     85  32  15 S12         N/A
YUMA CO        FAIR      79  36  21 S14G22    29.93F
$$



USA.gov is the U.S. government's official web portal to all federal, state and local government web resources and services.